Location: Chuathbaluk
(61.5726°N, 159.2454°W)
Time: 23:13:36
(UTC+00:00)

Transit 2A - Pass Details

Date: 04 December 2020
Orbit: 598 x 960 km, 66.7° (Epoch: 20 January)

Event Time Altitude Azimuth Distance (km) Brightness Sun altitude
Rises 04:19:56 0° 227° (SW) 3,596 10.5 -18.6°
Reaches altitude 10° 04:22:32 10° 226° (SW) 2,624 9.6 -18.9°
Maximum altitude 04:28:40 80° 141° (SE) 895 6.2 -19.7°
Enters shadow 04:31:09 36° 60° (ENE) 1,327 6.7 -19.9°
Drops below altitude 10° 04:34:18 10° 56° (NE) 2,416 - -20.3°
Sets 04:36:37 0° 55° (NE) 3,294 - -20.6°
